Location: Coll
(42.4728°N, 0.7714°E)
Time: 12:50:03
(UTC+00:00)

SJ-6F - Pass Details

Date: 23 October 2020
Orbit: 571 x 593 km, 97.8° (Epoch: 01 December)

Event Time Altitude Azimuth Distance (km) Brightness Sun altitude
Rises 04:22:57 0° 13° (NNE) 2,791 8.1 -22.2°
Reaches altitude 10° 04:25:06 10° 14° (NNE) 1,890 7.2 -21.8°
Maximum altitude 04:29:12 85° 103° (ESE) 584 4.3 -21.0°
Drops below altitude 10° 04:33:18 10° 192° (SSW) 1,884 6.9 -20.3°
Enters shadow 04:33:23 10° 192° (SSW) 1,919 6.9 -20.3°
